Regional Weather Roundup
Issued by NWS

Home | Current Version | Previous Version | Graphics & Text | Print | Product List | Glossary On
Versions: 1 2 3 4 5 6 7 8 9 10 11 12 13 14 15 16 17 18 19 20 21 22 23 24 25 26 27 28 29 30 31 32 33 34 35 36 37 38 39 40 41 42 43 44 45 46 47 48 49 50
000
ASUS43 KDMX 281001
RWRIA

WEATHER ROUNDUP FOR IOWA
NATIONAL WEATHER SERVICE DES MOINES IA
400 AM CST TUE FEB 28 2017

NOTE: "FAIR" INDICATES FEW OR NO CLOUDS BELOW 12,000 FEET WITH NO
SIGNIFICANT WEATHER AND/OR OBSTRUCTIONS TO VISIBILITY.

* - THESE STATIONS ARE NOT NWS STATIONS...THUS NOT UNDER NWS
QUALITY CONTROL.  THEY ALSO DO NOT REPORT WEATHER SUCH
AS PRECIPITATION OR FOG.

IAZ001>003-012>014-020>022-031>034-043>046-281100-
   NORTHWEST IOWA

CITY           SKY/WX    TMP DP  RH WIND       PRES   REMARKS
CARROLL *      CLOUDY    37  37 100 E7        29.62F WCI  32
CHEROKEE *     CLOUDY    33  32  95 CALM      29.63F
DENISON *      CLOUDY    39  34  81 E6        29.57F WCI  35
LE MARS *      CLOUDY    34  30  86 S10G17    29.62F WCI  26
SHELDON *      CLOUDY    34  34 100 E9        29.61F WCI  26
SIOUX CITY     PTCLDY    33  29  85 N5        29.60F WCI  29
SPENCER        CLOUDY    32  29  88 E6        29.65F WCI  26
STORM LAKE *   CLOUDY    36  32  87 E8        29.62F WCI  29
$$

IAZ055>058-069>071-079>083-090>094-281100-
   SOUTHWEST IOWA

CITY           SKY/WX    TMP DP  RH WIND       PRES   REMARKS
ATLANTIC *     CLOUDY    46  43  87 CALM      29.59F
AUDUBON *      CLOUDY    39  36  87 CALM      29.61F
CLARINDA *     CLOUDY    54  50  87 NW3       29.62F
COUNCIL BLFS * CLOUDY    50  48  93 S9        29.56F
CRESTON *      CLOUDY    48  45  87 SE9       29.63F
HARLAN  *      MOCLDY    43  41  93 CALM      29.62F
LAMONI         CLOUDY    56  50  80 S14G21    29.64F
RED OAK *      CLOUDY    55  52  88 S14G22    29.58F
SHENANDOAH *   PTCLDY    57  54  88 S20G29    29.57F
$$

IAZ047>049-059>061-072>074-084-281100-
   CENTRAL IOWA

CITY           SKY/WX    TMP DP  RH WIND       PRES   REMARKS
AMES           CLOUDY    40  37  89 E3        29.66F
ANKENY *       CLOUDY    43  37  81 SE6       29.67F
BOONE *        CLOUDY    41  37  87 E8        29.64F
CHARITON *     CLOUDY    50  46  87 SE9       29.66F
DES MOINES     CLOUDY    50  41  71 SE7       29.66F
GRINNELL*      CLOUDY    46  41  85 S9        29.70F
KNOXVILLE *    CLOUDY    52  45  76 SE7       29.66F
MARSHALLTOWN   CLOUDY    37  34  89 E8        29.67F WCI  31
NEWTON *       CLOUDY    46  43  87 S8        29.67F FOG
PELLA *        MOCLDY    51  45  78 SE8       29.69F
PERRY *        CLOUDY    40  36  85 E7        29.64F
$$

IAZ004>006-015-016-023>025-035-036-281100-
   NORTH CENTRAL IOWA

CITY           SKY/WX    TMP DP  RH WIND       PRES   REMARKS
ALGONA *       CLOUDY    39  34  81 SE12      29.65F WCI  32
CLARION *      CLOUDY    37  37 100 E15       29.65F WCI  28
ESTHERVILLE    CLOUDY    31  30  96 SE6       29.66F WCI  25
FORT DODGE *   CLOUDY    36  30  80 SE6       29.66F WCI  31
MASON CITY     CLOUDY    38  34  85 E13       29.69F WCI  30
FOREST CITY *    N/A     37  34  87 E12G17    29.67F WCI  30
WEBSTER CITY * CLOUDY    36  34  93 E12       29.63F WCI  27
IOWA FALLS *     N/A     37  35  90 E6        29.68F WCI  33
$$

IAZ007>011-017>019-026>030-037>042-050>054-066-281100-
   NORTHEAST IOWA

CITY           SKY/WX    TMP DP  RH WIND       PRES   REMARKS
CEDAR RAPIDS   CLEAR     45  42  89 S8        29.71F
CHARLES CITY * CLOUDY    39  39 100 E13       29.71F WCI  32
CLINTON *      CLOUDY    48  45  89 S16       29.78F
DECORAH *      CLOUDY    39  36  87 E10       29.74F WCI  32
DUBUQUE        CLOUDY    42  41  96 SE9       29.75F
MONTICELLO *   MOCLDY    45  41  87 SE7       29.74F
OELWEIN *      PTCLDY    39  37  93 E9        29.72F WCI  33
WATERLOO       CLOUDY    35  33  92 E7        29.70F WCI  29
$$

IAZ064-065-067-068-078-281100-
   EAST CENTRAL IOWA

CITY           SKY/WX    TMP DP  RH WIND       PRES   REMARKS
DAVENPORT      LGT RAIN  51  47  86 S13G25    29.80S
IOWA CITY      PTCLDY    50  46  86 S13       29.75F
MUSCATINE *    CLOUDY    52  48  87 SE5       29.78F
QUAD CITIES    CLOUDY    52  48  86 S9        29.79F
$$

IAZ062-063-075>077-085>089-095>099-281100-
   SOUTHEAST IOWA

CITY           SKY/WX    TMP DP  RH WIND       PRES   REMARKS
BURLINGTON     MOCLDY    51  47  86 S10       29.76F
FAIRFIELD *    CLOUDY    52  45  76 SE9       29.72F
FORT MADISON * MOCLDY    54  48  82 S10       29.76F
KEOKUK *       MOCLDY    55  50  82 S12G22    29.75F
CENTERVILLE *  CLOUDY    55  54  94 S7        29.69F
OTTUMWA        CLOUDY    51  47  86 SE8       29.70F
WASHINGTON *   CLOUDY    48  48 100 SE9       29.75F
$$

ABBREVIATIONS USED IN REMARKS
   TC - TEMPERATURES IN CELSIUS
  WCI - WIND CHILL INDEX
   HX - HEAT INDEX
  VSB - VISIBILITY
$$




USA.gov is the U.S. government's official web portal to all federal, state and local government web resources and services.